Home > Weather > Tallahassee > Past weeks

Flag for USA Past Weather in Tallahassee, Florida, USA — Yesterday and Last 2 Weeks

Now
82 °F

Scattered clouds.


Feels Like: 87 °F
Forecast: 73 / 91 °F
Wind: 10 mph from East

Location: Tallahassee Regional Airport

Current Time: Aug 26, 2016 at 9:51:22 AM

Latest Report: Aug 26, 2016 at 8:53 AM


Visibility: 10 mi

Pressure: 30.04 "Hg

Humidity: 74%

Dew Point: 73 °F

Location of TallahasseeLocation

Past Weather in Tallahassee — Graph

°F

Tallahassee Temperature Yesterday

Maximum temperature yesterday: 93 °F (at 4:53 PM)
Minimum temperature yesterday: 76 °F (at 6:53 AM)
Average temperature yesterday: 84 °F

High & Low Weather Summary for the Past Weeks

 TemperatureHumidityPressure
High100 °F (Aug 23, 4:53 PM)97% (Aug 11, 7:53 AM)30.20 "Hg (Aug 11, 7:53 AM)
Low73 °F (Aug 15, 3:53 AM)39% (Aug 23, 4:53 PM)29.91 "Hg (Aug 20, 4:53 PM)
Average84 °F75%30.07 "Hg
* Reported Aug 11 7:53 AM — Aug 26 7:53 AM, Tallahassee, Weather by CustomWeather, © 2016

Note: Actual official high and low records may vary slightly from our data, if they occured in-between our weather recording intervals... More about our weather records

Advertising

Tallahassee Weather History for the Previous 24 Hours

Scroll right to see more
 ConditionsComfort  
Time TempWeatherWind HumidityBarometerVisibility
7:53 AM
Fri, Aug 26
78 °FPassing clouds.5 mph82%30.04 "Hg10 mi
6:53 AM74 °FPassing clouds.No wind91%30.03 "Hg10 mi
5:53 AM77 °FPassing clouds.3 mph85%30.03 "Hg10 mi
4:53 AM75 °FClear.No wind88%30.03 "Hg10 mi
3:53 AM78 °FClear.No wind79%30.04 "Hg10 mi
2:53 AM78 °FClear.No wind79%30.05 "Hg10 mi
1:53 AM79 °FClear.3 mph74%30.06 "Hg10 mi
12:53 AM80 °FClear.7 mph69%30.06 "Hg10 mi
11:53 PM
Thu, Aug 25
80 °FClear.N/A67%30.06 "Hg10 mi
10:53 PM81 °FClear.N/A65%30.06 "Hg10 mi
9:53 PM83 °FClear.3 mph59%30.05 "Hg10 mi
8:53 PM84 °FSunny.5 mph53%30.03 "Hg10 mi
7:53 PM88 °FPassing clouds.7 mph45%30.02 "Hg10 mi
6:53 PM90 °FSunny.10 mph43%30.01 "Hg10 mi
5:53 PM91 °FPassing clouds.10 mph42%30.01 "Hg10 mi
4:53 PM93 °FScattered clouds.15 mph41%30.02 "Hg10 mi
3:53 PM91 °FScattered clouds.14 mph42%30.04 "Hg10 mi
2:53 PM92 °FBroken clouds.12 mph41%30.07 "Hg10 mi
1:53 PM91 °FBroken clouds.14 mph42%30.09 "Hg10 mi
12:53 PM90 °FPartly sunny.9 mph45%30.12 "Hg10 mi
11:53 AM89 °FPartly sunny.12 mph45%30.14 "Hg10 mi
10:53 AM87 °FScattered clouds.9 mph55%30.15 "Hg10 mi
9:53 AM83 °FPassing clouds.8 mph70%30.15 "Hg10 mi
Weather by CustomWeather, © 2016

See weather overviewHow to use our weather pages